Rickenbacker, OH

7:32 PM EDT on April 27, 2017 (GMT -0400)
Rickenbacker International

Weather History for KLCK - March, 2014

Change the Weather History Date:

Saturday, March 15, 2014

  Actual Average Record
Temperature  
Mean Temperature 46 °F -  
Max Temperature 56 °F 48 °F 69 °F (2002)
Min Temperature 36 °F 30 °F 14 °F (2017)
Degree Days  
Heating Degree Days 19    
Moisture  
Dew Point 28 °F    
Average Humidity 51    
Maximum Humidity 76    
Minimum Humidity 23    
Precipitation  
Precipitation 0.00 in - - ()
Sea Level Pressure  
Sea Level Pressure 30.01 in    
Wind  
Wind Speed 11 mph (WNW)    
Max Wind Speed 20 mph    
Max Gust Speed 31 mph    
Visibility 10 miles    
Events Rain    
Averages and records for this station are not official NWS values.
T = Trace of Precipitation, MM = Missing Value Source: NWS Daily Summary

Daily Weather History Graph

Daily Weather History Graph

Search for Another Location

Airport or City:

Trip Planner

Search our weather history database for the weather conditions in past years. The results will help you decide how hot, cold, wet, or windy it might be!

Date:

Astronomy

Mar. 15, 2014 Rise Set
Actual Time 7:43 AM EDT 7:38 PM EDT
Civil Twilight 7:16 AM EDT 8:05 PM EDT
Nautical Twilight 6:44 AM EDT 8:36 PM EDT
Astronomical Twilight 6:13 AM EDT 9:08 PM EDT
Moon 6:56 PM EDT (3/15) 6:54 AM EDT (3/15)
Length of Visible Light 12h 49m
Length of Day
11h 55m
Waxing Gibbous, 99% of the Moon is Illuminated
Mar 15
Waxing Gibbous
Mar 16
Full
Mar 23
Last Quarter
Mar 30
New
Apr 7
First Quarter

Hourly Weather History & Observations

Time (EDT) Temp. Windchill Dew Point Humidity Pressure Visibility Wind Dir Wind Speed Gust Speed Precip Events Conditions
12:15 AM 51.8 °F - 37.0 °F 57% 29.85 in 10.0 mi West 17.3 mph 31.1 mph N/A Rain Light Rain
12:35 AM 48.9 °F - 40.8 °F 74% 29.84 in 10.0 mi West 12.7 mph 17.3 mph N/A Rain Light Rain
12:55 AM 48.4 °F - 41.0 °F 76% 29.84 in 10.0 mi West 11.5 mph - N/A   Overcast
1:15 AM 48.6 °F - 40.8 °F 75% 29.85 in 10.0 mi West 13.8 mph 18.4 mph N/A   Overcast
1:35 AM 48.6 °F - 39.6 °F 71% 29.85 in 10.0 mi West 11.5 mph - N/A   Overcast
1:55 AM 47.8 °F - 39.2 °F 72% 29.85 in 10.0 mi WSW 9.2 mph - N/A   Overcast
2:15 AM 46.9 °F - 39.6 °F 76% 29.86 in 10.0 mi SW 5.8 mph - N/A   Overcast
2:35 AM 46.2 °F 42.7 °F 38.8 °F 75% 29.87 in 10.0 mi WSW 6.9 mph - N/A   Overcast
2:55 AM 46.0 °F 40.2 °F 36.0 °F 68% 29.88 in 10.0 mi West 12.7 mph - N/A   Overcast
3:15 AM 46.6 °F - 32.7 °F 59% 29.90 in 10.0 mi WNW 12.7 mph 20.7 mph N/A   Overcast
3:35 AM 46.2 °F 42.2 °F 32.0 °F 58% 29.90 in 10.0 mi WNW 8.1 mph - N/A   Overcast
3:55 AM 45.5 °F 41.8 °F 32.0 °F 59% 29.90 in 10.0 mi West 6.9 mph - N/A   Overcast
4:15 AM 44.1 °F 40.8 °F 32.2 °F 63% 29.90 in 10.0 mi WSW 5.8 mph - N/A   Overcast
4:35 AM 43.0 °F 38.8 °F 32.2 °F 66% 29.90 in 10.0 mi WSW 6.9 mph - N/A   Overcast
4:55 AM 42.1 °F 37.1 °F 32.0 °F 67% 29.91 in 10.0 mi WSW 8.1 mph - N/A   Mostly Cloudy
5:15 AM 41.9 °F 35.9 °F 32.0 °F 68% 29.91 in 10.0 mi West 10.4 mph - N/A   Mostly Cloudy
5:35 AM 41.7 °F 35.6 °F 32.0 °F 68% 29.92 in 10.0 mi WSW 10.4 mph - N/A   Scattered Clouds
5:55 AM 41.0 °F 35.2 °F 31.6 °F 69% 29.93 in 10.0 mi WSW 9.2 mph - N/A   Clear
6:15 AM 40.3 °F 34.4 °F 30.4 °F 68% 29.93 in 10.0 mi WSW 9.2 mph - N/A   Clear
6:35 AM 39.2 °F 33.0 °F 29.7 °F 69% 29.94 in 10.0 mi WSW 9.2 mph - N/A   Clear
6:55 AM 38.8 °F 32.6 °F 29.1 °F 68% 29.95 in 10.0 mi WSW 9.2 mph - N/A   Clear
7:15 AM 38.1 °F 32.3 °F 28.9 °F 70% 29.95 in 10.0 mi WSW 8.1 mph - N/A   Clear
7:35 AM 37.4 °F 32.1 °F 28.4 °F 70% 29.95 in 10.0 mi WSW 6.9 mph - N/A   Clear
7:55 AM 36.1 °F 30.6 °F 28.0 °F 72% 29.97 in 10.0 mi WSW 6.9 mph - N/A   Clear
8:15 AM 36.5 °F 31.8 °F 28.6 °F 73% 29.97 in 10.0 mi SW 5.8 mph - N/A   Clear
8:35 AM 37.0 °F 33.3 °F 29.3 °F 74% 29.98 in 10.0 mi WSW 4.6 mph - N/A   Clear
8:55 AM 39.0 °F 35.7 °F 31.1 °F 73% 29.99 in 10.0 mi SW 4.6 mph - N/A   Clear
9:15 AM 41.2 °F 35.5 °F 32.0 °F 70% 30.00 in 10.0 mi WSW 9.2 mph - N/A   Clear
9:35 AM 42.8 °F 35.8 °F 31.8 °F 65% 30.01 in 10.0 mi WSW 13.8 mph - N/A   Clear
9:55 AM 44.1 °F 37.7 °F 31.1 °F 60% 30.02 in 10.0 mi West 12.7 mph 19.6 mph N/A   Clear
10:15 AM 45.1 °F 38.1 °F 30.4 °F 56% 30.02 in 10.0 mi WNW 16.1 mph 25.3 mph N/A   Scattered Clouds
10:35 AM 45.9 °F 40.0 °F 29.8 °F 54% 30.03 in 10.0 mi West 12.7 mph 18.4 mph N/A   Scattered Clouds
10:55 AM 46.8 °F - 29.5 °F 51% 30.04 in 10.0 mi West 13.8 mph 20.7 mph N/A   Scattered Clouds
11:15 AM 47.5 °F - 29.1 °F 49% 30.04 in 10.0 mi West 16.1 mph - N/A   Scattered Clouds
11:35 AM 48.4 °F - 28.0 °F 45% 30.05 in 10.0 mi West 18.4 mph 23.0 mph N/A   Clear
11:55 AM 48.9 °F - 27.7 °F 44% 30.06 in 10.0 mi West 19.6 mph 23.0 mph N/A   Clear
12:15 PM 50.2 °F - 25.0 °F 37% 30.06 in 10.0 mi WSW 15.0 mph - N/A   Clear
12:35 PM 50.7 °F - 23.9 °F 35% 30.06 in 10.0 mi West 17.3 mph 25.3 mph N/A   Clear
12:55 PM 50.9 °F - 23.5 °F 34% 30.07 in 10.0 mi West 18.4 mph 24.2 mph N/A   Clear
1:15 PM 52.0 °F - 24.8 °F 35% 30.07 in 10.0 mi West 16.1 mph 24.2 mph N/A   Scattered Clouds
1:35 PM 52.7 °F - 24.1 °F 33% 30.07 in 10.0 mi WNW 13.8 mph - N/A   Clear
2:15 PM 53.8 °F - 23.5 °F 31% 30.05 in 10.0 mi West 13.8 mph 20.7 mph N/A   Clear
2:35 PM 54.0 °F - 23.2 °F 30% 30.05 in 10.0 mi WNW 15.0 mph 21.9 mph N/A   Clear
2:55 PM 54.7 °F - 23.4 °F 30% 30.05 in 10.0 mi West 10.4 mph 19.6 mph N/A   Clear
3:15 PM 54.9 °F - 23.0 °F 29% 30.05 in 10.0 mi WNW 11.5 mph - N/A   Clear
3:35 PM 55.6 °F - 22.5 °F 28% 30.05 in 10.0 mi West 13.8 mph 19.6 mph N/A   Clear
3:55 PM 55.9 °F - 20.8 °F 26% 30.05 in 10.0 mi West 19.6 mph 24.2 mph N/A   Clear
4:15 PM 55.9 °F - 20.1 °F 25% 30.06 in 10.0 mi WNW 16.1 mph - N/A   Clear
4:35 PM 56.3 °F - 19.9 °F 24% 30.05 in 10.0 mi West 18.4 mph 24.2 mph N/A   Clear
4:55 PM 56.1 °F - 18.9 °F 23% 30.05 in 10.0 mi West 11.5 mph 19.6 mph N/A   Clear
5:15 PM 55.4 °F - 19.2 °F 24% 30.05 in 10.0 mi West 13.8 mph 19.6 mph N/A   Clear
5:35 PM 55.4 °F - 18.0 °F 23% 30.05 in 10.0 mi WNW 15.0 mph - N/A   Clear
5:55 PM 55.2 °F - 18.0 °F 23% 30.05 in 10.0 mi West 9.2 mph - N/A   Clear
6:15 PM 54.9 °F - 17.6 °F 23% 30.05 in 10.0 mi NW 4.6 mph - N/A   Clear
6:35 PM 54.1 °F - 18.0 °F 24% 30.06 in 10.0 mi WNW 8.1 mph - N/A   Clear
6:55 PM 53.1 °F - 19.6 °F 27% 30.06 in 10.0 mi NW 6.9 mph - N/A   Scattered Clouds
7:15 PM 52.0 °F - 21.6 °F 30% 30.07 in 10.0 mi NW 8.1 mph - N/A   Scattered Clouds
7:35 PM 51.6 °F - 22.6 °F 32% 30.08 in 10.0 mi NNW 8.1 mph - N/A   Mostly Cloudy
7:55 PM 49.8 °F - 23.2 °F 35% 30.07 in 10.0 mi NNW 9.2 mph - N/A   Scattered Clouds
8:15 PM 48.2 °F - 24.3 °F 39% 30.07 in 10.0 mi NNW 8.1 mph - N/A   Clear
8:35 PM 47.3 °F - 24.1 °F 40% 30.08 in 10.0 mi North 8.1 mph - N/A   Clear
8:55 PM 45.7 °F 42.7 °F 23.5 °F 42% 30.08 in 10.0 mi North 5.8 mph - N/A   Clear
9:15 PM 44.6 °F 39.7 °F 24.1 °F 44% 30.09 in 10.0 mi North 9.2 mph - N/A   Clear
9:35 PM 43.9 °F 38.8 °F 25.3 °F 48% 30.10 in 10.0 mi North 9.2 mph - N/A   Clear
9:55 PM 43.3 °F 38.6 °F 26.2 °F 51% 30.11 in 10.0 mi North 8.1 mph - N/A   Clear
10:15 PM 42.4 °F 37.0 °F 26.6 °F 54% 30.11 in 10.0 mi North 9.2 mph - N/A   Clear
10:35 PM 41.7 °F 36.1 °F 27.1 °F 56% 30.13 in 10.0 mi North 9.2 mph - N/A   Clear
10:55 PM 41.4 °F 35.2 °F 27.0 °F 57% 30.13 in 10.0 mi North 10.4 mph - N/A   Clear
11:15 PM 40.8 °F 35.0 °F 26.6 °F 57% 30.13 in 10.0 mi North 9.2 mph - N/A   Clear
11:35 PM 40.1 °F 34.1 °F 26.4 °F 58% 30.13 in 10.0 mi North 9.2 mph - N/A   Clear
11:55 PM 39.0 °F 33.4 °F 26.1 °F 60% 30.13 in 10.0 mi NNE 8.1 mph - N/A   Clear